Weather in Melle

Germany     52°11′58″N   8°20′04″E
temp.,
°C
wind,
m/s
gust,
m/s
humid.,
%
clouds,
%
prec.,
mm/h
press.,
hPa
HPBL,
m
24 july, sat
sat2423:00+14ene37910 0.0 1015139
02:00+13ene369431 0.0 1015122
05:00+12ene359459 0.0 1013101
08:00+16ene358199 0.0 1012174
11:00+22e456541 0.0 1011591
14:00+25e445690 0.0 10101192
17:00+25ese3459100 0.7 10091040
20:00+19e129365 4.2 100959
25 july, sun
sun2523:00+16se119688 0.0 100911
02:00+16ese1193100 0.0 100911
05:00+15sse11948 0.0 100911
08:00+18ssw369118 0.0 1009276
11:00+22sw457145 0.0 1010971
14:00+25ssw44535 0.1 10091665
17:00+26s4548100 0.0 10091630
20:00+23se2369100 0.0 100862
26 july, mon
mon2623:00+19sse2382100 0.6 101049
02:00+17s2289100 2.3 100927
05:00+16s239287 0.0 100961
08:00+18ssw488625 0.0 1010344
11:00+22ssw576939 0.1 10101074
14:00+22sw586681 0.8 10101312
17:00+22sw696645 0.6 10111275
20:00+21sw59755 0.7 1011774
27 july, tue
tue2723:00+17sw38910 0.0 1012246
02:00+15sw38955 0.0 1012222
05:00+14ssw239625 0.0 101376
08:00+17ssw36886 0.0 1013285
11:00+21sw4467100 0.0 1013878
14:00+24ssw345432 0.0 10121680
17:00+24sw3455100 0.1 10111092
20:00+19ssw2383100 1.3 101284
28 july, wed
wed2823:00+17sw3596100 3.2 1013187
02:00+16ssw379286 4.1 1013251
05:00+14ssw310955 0.0 1012238
08:00+16sw5119069 0.0 1013447
11:00+20sw710635 0.0 10131258
14:00+22wsw79505 0.0 10131673
17:00+23wsw6951100 0.0 10141951
20:00+20w366434 0.0 1014222